{"data":{"norad_id":68230,"intl_designator":"2026-053Z","name":"STARLINK-37100","alt_names":[],"object_type":"PAYLOAD","status":"ACTIVE","operator":null,"country":"US","launch_date":"2026-03-17","launch_site_code":"AFWTR","launch_vehicle":null,"mission":null,"orbit_class":"UNKNOWN","rcs_meters":null,"size_class":null,"mass_kg":null,"dimensions":null,"purposes":["comms"],"wikipedia_slug":null,"has_3d_model":false,"image_url":null,"decayed_at":null,"tle_current":{"epoch":"2026-09-19T02:31:59.202912Z","epoch_age_seconds":172129,"freshness":"FRESH","line1":"1 68230U 26053Z   26262.10554633  .00016725  00000+0  51908-3 0  9996","line2":"2 68230  97.2842 135.9640 0001517  95.8692 264.2723 15.33453804 29861","mean_motion":15.33453804,"eccentricity":0.0001517,"inclination_deg":97.2842,"raan_deg":135.964,"arg_perigee_deg":95.8692,"mean_anomaly_deg":264.2723,"bstar":0.00051908,"rev_number":2986,"period_min":93.905665514264,"perigee_km":464.47879778482,"apogee_km":466.55516240238,"semimajor_km":6843.6539800936,"source":"CELESTRAK","updated_at":"2026-09-20T09:00:43.837976Z"}}}